Lid_Strength_Index
9 11 12 10 10 10 12 13 13 12 10 12 12 12 11 9 9 9 9 9 8 8 7 7 7 7 7 6 6 6 6 6 5 4 4 3 3 3 3 2 3 3 4 6
12 13 10 9 11 12 12 13 13 12 11 13 12 13 11 10 9 9 9 9 8 8 8 7 8 7 8 8 7 7 7 7 7 5 4 4 4 4 3 3 4 4 5 6
12 10 10 11 11 12 12 13 13 13 12 12 13 13 12 10 9 9 9 8 9 9 9 8 9 9 9 9 9 9 8 8 7 6 5 5 6 6 6 5 6 6 6 6
12 11 12 12 13 12 14 11 13 14 14 16 13 16 12 10 10 9 9 9 9 8 9 9 10 10 10 10 9 9 9 9 9 7 7 7 8 8 8 8 7 7 7 7
12 13 13 13 12 12 13 12 14 14 15 15 14 16 12 12 12 10 9 9 9 9 10 11 11 11 11 11 10 10 9 9 9 9 8 8 8 8 7 8 8 8 8 8
11 12 12 11 12 12 12 13 13 14 14 17 13 15 13 12 12 11 10 11 10 10 10 11 10 10 11 10 11 11 10 10 10 9 9 9 9 9 9 9 9 9 9 9
12 13 12 12 13 13 13 13 15 17 17 17 15 16 14 11 11 11 11 11 11 11 11 11 11 11 11 11 11 11 11 12 11 10 10 10 10 9 9 9 10 10 10 11
13 14 12 11 11 11 13 12 15 21 20 17 13 16 13 9 10 11 11 11 12 12 12 11 11 11 11 11 11 11 11 12 11 11 11 11 10 10 10 10 10 10 10 10
13 13 11 12 11 10 13 14 11 14 15 17 14 12 10 10 11 11 11 11 12 12 12 12 12 12 11 11 11 10 11 11 11 11 11 11 11 11 11 10 10 10 10 10
10 15 9 10 10 10 11 9 14 14 19 20 15 14 13 12 12 11 11 12 12 12 12 11 11 12 12 11 11 10 10 11 11 11 11 11 11 11 11 11 12 11 11 11
9 13 12 9 11 11 11 12 12 13 14 20 20 15 10 11 11 12 13 13 13 13 12 11 11 11 11 11 11 11 11 11 11 12 11 11 11 11 12 12 12 12 12 12
8 11 15 12 8 8 10 11 11 16 17 14 15 15 9 10 11 12 14 14 13 13 12 12 11 11 12 12 12 12 12 12 12 12 11 12 11 12 12 12 12 12 13 12
10 14 17 16 11 10 12 11 10 11 13 17 18 17 10 12 13 13 14 14 13 13 13 12 11 11 12 12 12 12 12 12 12 12 12 12 11 12 13 14 13 13 13 13
8 12 15 17 14 11 14 13 12 13 17 16 16 14 11 9 10 13 14 13 13 14 13 12 12 11 11 12 12 13 13 13 13 13 12 12 12 12 13 13 13 13 13 13
9 14 12 12 11 11 12 12 12 13 12 16 14 14 12 10 11 13 14 13 13 14 13 12 12 11 11 12 12 12 12 12 12 12 12 12 12 12 13 14 14 14 13 14
9 13 12 14 11 11 14 12 11 11 11 11 11 12 8 11 11 12 12 12 11 12 12 11 11 10 11 11 12 12 13 12 12 12 13 13 12 12 13 13 14 15 14 14
11 12 13 16 12 12 15 13 12 11 10 11 13 11 12 13 12 11 11 11 11 11 11 11 10 10 10 10 11 11 12 11 12 13 13 13 13 13 14 13 13 14 14 14
12 13 12 15 14 19 13 9 10 11 11 12 12 13 12 12 12 10 9 10 10 10 10 10 10 9 9 10 10 11 11 11 12 13 13 13 14 15 14 14 13 14 14 14
11 12 14 16 16 13 12 10 11 12 12 10 12 12 12 11 10 11 9 9 9 9 9 9 8 9 9 10 10 10 11 11 12 12 13 12 14 15 15 16 15 14 14 14
12 10 13 15 18 19 13 12 10 10 15 10 11 11 11 11 15 12 9 8 8 8 7 8 8 8 9 9 9 11 11 11 11 11 12 12 13 15 16 15 16 15 14 14
16 15 15 14 16 13 10 11 9 16 14 9 10 10 10 12 10 9 8 8 7 7 7 7 8 9 9 9 10 11 11 12 11 11 12 12 13 14 15 15 15 16 16 15
15 15 17 18 18 19 10 11 13 10 8 8 9 9 9 9 9 8 8 8 7 7 8 8 9 10 9 9 11 12 13 12 12 13 14 14 15 15 15 16 16 16 16 16
16 13 14 15 14 9 9 9 8 7 8 8 8 8 8 9 9 8 8 8 8 8 9 9 10 11 11 11 12 13 13 13 14 15 16 17 16 17 17 17 18 17 17 17
11 10 13 12 11 10 9 7 7 7 7 7 7 8 8 9 9 9 9 9 10 10 10 11 12 13 14 13 13 14 14 15 17 18 18 18 18 18 18 18 17 18 18 17
11 11 12 12 11 9 9 8 7 7 7 7 8 8 9 10 10 10 11 11 11 12 12 13 14 15 15 15 16 16 17 18 19 20 19 19 19 19 19 19 18 18 17 16
10 11 12 13 9 9 9 7 6 8 8 9 10 11 11 12 12 12 13 12 13 14 14 16 16 17 17 18 19 19 20 21 22 22 22 21 21 21 21 21 21 18 16 15